• In Österreich
  • Länderverzeichnis
  • Für 7 Tage
  • Wassertemperatur
  • Satellitenkarten
  • Wetterkarte
  • News
  • Widgets
  • user-avatar
    Anmelden

    Stündliche Wetter Puebla

    Heute, 15 August, Mittwoch

    Zeit Temperatur Niederschläge Wind Luftdruck Luftfeuchtigkeit
    00:00 +15°C° 0,3 mm 1 m/S 589 mmHg 91%
    01:00 +15°C° 0,3 mm 1 m/S 588 mmHg 91%
    02:00 +13°C° 0,3 mm 0 m/S 588 mmHg 91%
    03:00 +13°C° 0,1 mm 0 m/S 588 mmHg 92%
    04:00 +12°C° 0,1 mm 0 m/S 588 mmHg 92%
    05:00 +12°C° 0,1 mm 0 m/S 588 mmHg 93%
    06:00 +14°C° 0 mm 0 m/S 589 mmHg 88%
    07:00 +16°C° 0 mm 1 m/S 589 mmHg 83%
    08:00 +19°C° 0 mm 1 m/S 590 mmHg 77%
    09:00 +20°C° 0,2 mm 1 m/S 591 mmHg 72%
    10:00 +21°C° 0,2 mm 1 m/S 591 mmHg 67%
    11:00 +23°C° 0,2 mm 1 m/S 592 mmHg 62%
    12:00 +23°C° 1,4 mm 2 m/S 591 mmHg 63%
    13:00 +23°C° 1,4 mm 2 m/S 591 mmHg 65%
    14:00 +23°C° 1,4 mm 2 m/S 590 mmHg 66%
    15:00 +21°C° 2,5 mm 2 m/S 590 mmHg 72%
    16:00 +20°C° 2,5 mm 2 m/S 589 mmHg 78%
    17:00 +19°C° 2,5 mm 1 m/S 589 mmHg 83%
    18:00 +19°C° 1,7 mm 1 m/S 589 mmHg 85%
    19:00 +18°C° 1,7 mm 1 m/S 589 mmHg 87%
    20:00 +16°C° 1,7 mm 1 m/S 589 mmHg 88%
    21:00 +15°C° 0,2 mm 1 m/S 589 mmHg 88%
    22:00 +15°C° 0,2 mm 1 m/S 589 mmHg 89%
    23:00 +14°C° 0,2 mm 1 m/S 589 mmHg 89%

    Morgen, 16 August, Donnerstag

    Zeit Temperatur Niederschläge Wind Luftdruck Luftfeuchtigkeit
    00:00 +14°C° 0 mm 1 m/S 589 mmHg 89%
    01:00 +14°C° 0 mm 1 m/S 588 mmHg 89%
    02:00 +13°C° 0 mm 1 m/S 588 mmHg 90%
    03:00 +13°C° 0 mm 1 m/S 588 mmHg 89%
    04:00 +13°C° 0 mm 1 m/S 588 mmHg 89%
    05:00 +13°C° 0 mm 1 m/S 588 mmHg 88%
    06:00 +15°C° 0 mm 1 m/S 589 mmHg 80%
    07:00 +18°C° 0 mm 1 m/S 591 mmHg 72%
    08:00 +20°C° 0 mm 1 m/S 592 mmHg 64%
    09:00 +21°C° 0 mm 1 m/S 592 mmHg 57%
    10:00 +23°C° 0 mm 1 m/S 593 mmHg 49%
    11:00 +25°C° 0 mm 2 m/S 593 mmHg 42%
    12:00 +25°C° 0,1 mm 2 m/S 593 mmHg 44%
    13:00 +25°C° 0,1 mm 3 m/S 592 mmHg 45%
    14:00 +25°C° 0,1 mm 3 m/S 592 mmHg 47%
    15:00 +24°C° 0,5 mm 3 m/S 591 mmHg 54%
    16:00 +21°C° 0,5 mm 3 m/S 591 mmHg 61%
    17:00 +20°C° 0,5 mm 2 m/S 590 mmHg 68%
    18:00 +18°C° 0,5 mm 2 m/S 590 mmHg 72%
    19:00 +17°C° 0,5 mm 2 m/S 590 mmHg 76%
    20:00 +15°C° 0,5 mm 2 m/S 590 mmHg 80%
    21:00 +15°C° 0,1 mm 2 m/S 590 mmHg 82%
    22:00 +14°C° 0,1 mm 2 m/S 590 mmHg 84%
    23:00 +14°C° 0,1 mm 2 m/S 590 mmHg 86%

    übermorgen, 17 August, Freitag

    Zeit Temperatur Niederschläge Wind Luftdruck Luftfeuchtigkeit
    00:00 +13°C° 0 mm 2 m/S 589 mmHg 86%
    01:00 +13°C° 0 mm 2 m/S 589 mmHg 86%
    02:00 +13°C° 0 mm 2 m/S 588 mmHg 86%
    03:00 +12°C° 0 mm 2 m/S 588 mmHg 85%
    04:00 +12°C° 0 mm 2 m/S 588 mmHg 84%
    05:00 +12°C° 0 mm 2 m/S 589 mmHg 83%
    06:00 +14°C° 0 mm 2 m/S 590 mmHg 75%
    07:00 +16°C° 0 mm 2 m/S 591 mmHg 67%
    08:00 +19°C° 0 mm 2 m/S 592 mmHg 58%
    09:00 +21°C° 0 mm 2 m/S 593 mmHg 52%
    10:00 +23°C° 0 mm 2 m/S 593 mmHg 46%
    11:00 +25°C° 0 mm 3 m/S 594 mmHg 40%
    12:00 +25°C° 0,1 mm 3 m/S 593 mmHg 42%
    13:00 +25°C° 0,1 mm 3 m/S 593 mmHg 44%
    14:00 +25°C° 0,1 mm 3 m/S 592 mmHg 46%
    15:00 +24°C° 0,4 mm 3 m/S 592 mmHg 52%
    16:00 +22°C° 0,4 mm 3 m/S 591 mmHg 58%
    17:00 +20°C° 0,4 mm 2 m/S 591 mmHg 65%
    18:00 +19°C° 0,3 mm 2 m/S 591 mmHg 69%
    19:00 +17°C° 0,3 mm 2 m/S 590 mmHg 73%
    20:00 +16°C° 0,3 mm 2 m/S 590 mmHg 78%
    21:00 +15°C° 0,1 mm 2 m/S 590 mmHg 80%
    22:00 +15°C° 0,1 mm 2 m/S 590 mmHg 83%
    23:00 +14°C° 0,1 mm 2 m/S 590 mmHg 85%

    18 August, Samstag

    Zeit Temperatur Niederschläge Wind Luftdruck Luftfeuchtigkeit
    00:00 +14°C° 0 mm 2 m/S 590 mmHg 86%
    01:00 +13°C° 0 mm 2 m/S 589 mmHg 86%
    02:00 +13°C° 0 mm 1 m/S 589 mmHg 87%
    03:00 +13°C° 0 mm 1 m/S 589 mmHg 87%
    04:00 +12°C° 0 mm 1 m/S 588 mmHg 87%
    05:00 +12°C° 0 mm 1 m/S 588 mmHg 87%
    06:00 +14°C° 0 mm 1 m/S 590 mmHg 78%
    07:00 +16°C° 0 mm 1 m/S 591 mmHg 70%
    08:00 +19°C° 0 mm 1 m/S 592 mmHg 61%
    09:00 +21°C° 0 mm 1 m/S 592 mmHg 55%
    10:00 +21°C° 0 mm 2 m/S 592 mmHg 48%
    11:00 +24°C° 0 mm 2 m/S 593 mmHg 42%
    12:00 +24°C° 0,1 mm 2 m/S 592 mmHg 45%
    13:00 +22°C° 0,1 mm 3 m/S 591 mmHg 49%
    14:00 +22°C° 0,1 mm 3 m/S 590 mmHg 53%
    15:00 +21°C° 0,1 mm 2 m/S 590 mmHg 57%
    16:00 +21°C° 0,1 mm 2 m/S 590 mmHg 62%
    17:00 +21°C° 0,1 mm 1 m/S 590 mmHg 66%
    18:00 +20°C° 0,1 mm 1 m/S 589 mmHg 71%
    19:00 +18°C° 0,1 mm 1 m/S 589 mmHg 75%
    20:00 +15°C° 0,1 mm 1 m/S 589 mmHg 80%
    21:00 +15°C° 0 mm 1 m/S 589 mmHg 81%
    22:00 +15°C° 0 mm 1 m/S 588 mmHg 83%
    23:00 +14°C° 0 mm 1 m/S 588 mmHg 84%

    19 August, Sonntag

    Zeit Temperatur Niederschläge Wind Luftdruck Luftfeuchtigkeit
    00:00 +14°C° 0 mm 1 m/S 588 mmHg 85%
    01:00 +14°C° 0 mm 1 m/S 587 mmHg 85%
    02:00 +14°C° 0 mm 1 m/S 587 mmHg 86%
    03:00 +13°C° 0 mm 1 m/S 587 mmHg 86%
    04:00 +13°C° 0 mm 1 m/S 587 mmHg 85%
    05:00 +13°C° 0 mm 1 m/S 587 mmHg 85%
    06:00 +15°C° 0 mm 1 m/S 588 mmHg 79%
    07:00 +18°C° 0 mm 1 m/S 589 mmHg 73%
    08:00 +18°C° 0 mm 0 m/S 591 mmHg 67%
    09:00 +21°C° 0,1 mm 1 m/S 591 mmHg 64%
    10:00 +21°C° 0,1 mm 2 m/S 591 mmHg 61%
    11:00 +23°C° 0,1 mm 2 m/S 591 mmHg 58%
    12:00 +23°C° 1,5 mm 2 m/S 590 mmHg 62%
    13:00 +22°C° 1,5 mm 3 m/S 590 mmHg 65%
    14:00 +22°C° 1,5 mm 3 m/S 589 mmHg 68%
    15:00 +20°C° 2,7 mm 2 m/S 589 mmHg 74%
    16:00 +19°C° 2,7 mm 2 m/S 588 mmHg 81%
    17:00 +19°C° 2,7 mm 1 m/S 588 mmHg 87%
    18:00 +18°C° 1,6 mm 1 m/S 588 mmHg 88%
    19:00 +18°C° 1,6 mm 1 m/S 589 mmHg 89%
    20:00 +15°C° 1,6 mm 0 m/S 589 mmHg 91%
    21:00 +15°C° 0,7 mm 0 m/S 589 mmHg 91%
    22:00 +14°C° 0,7 mm 0 m/S 589 mmHg 92%
    23:00 +14°C° 0,7 mm 0 m/S 588 mmHg 92%

    20 August, Montag

    Zeit Temperatur Niederschläge Wind Luftdruck Luftfeuchtigkeit
    00:00 +14°C° 0,4 mm 0 m/S 588 mmHg 93%
    01:00 +14°C° 0,4 mm 0 m/S 588 mmHg 93%
    02:00 +14°C° 0,4 mm 0 m/S 588 mmHg 93%
    03:00 +13°C° 0,3 mm 0 m/S 588 mmHg 94%
    04:00 +13°C° 0,3 mm 0 m/S 588 mmHg 94%
    05:00 +13°C° 0,3 mm 0 m/S 588 mmHg 95%
    06:00 +15°C° 0,1 mm 1 m/S 589 mmHg 90%
    07:00 +16°C° 0,1 mm 1 m/S 589 mmHg 86%
    08:00 +19°C° 0,1 mm 1 m/S 590 mmHg 81%
    09:00 +19°C° 0,5 mm 2 m/S 590 mmHg 77%
    10:00 +20°C° 0,5 mm 2 m/S 591 mmHg 72%
    11:00 +21°C° 0,5 mm 3 m/S 591 mmHg 68%
    12:00 +21°C° 1,8 mm 3 m/S 590 mmHg 69%
    13:00 +21°C° 1,8 mm 3 m/S 590 mmHg 69%
    14:00 +21°C° 1,8 mm 3 m/S 590 mmHg 70%
    15:00 +20°C° 2 mm 2 m/S 589 mmHg 74%
    16:00 +20°C° 2 mm 1 m/S 589 mmHg 79%
    17:00 +17°C° 2 mm 0 m/S 589 mmHg 83%
    18:00 +19°C° 1 mm 1 m/S 589 mmHg 85%
    19:00 +18°C° 1 mm 1 m/S 589 mmHg 86%
    20:00 +16°C° 1 mm 1 m/S 590 mmHg 88%
    21:00 +16°C° 0,5 mm 1 m/S 589 mmHg 88%
    22:00 +15°C° 0,5 mm 1 m/S 589 mmHg 89%
    23:00 +15°C° 0,5 mm 1 m/S 589 mmHg 90%
    Mehr zeigen